Location: Huppendorf
(49.9333°N, 11.1500°E)
Time: 20:19:26
(UTC+00:00)

ATLAS 3B R/B - Pass Details

Date: 27 February 2020
Orbit: 1029 x 1166 km, 63.8° (Epoch: 12 March)

Event Time Altitude Azimuth Distance (km) Brightness Sun altitude
Rises 17:33:52 0° 302° (WNW) 3,786 6.5 -7.3°
Reaches altitude 10° 17:36:58 10° 315° (NW) 2,838 5.6 -7.8°
Maximum altitude 17:42:29 26° 11° (N) 1,914 3.9 -8.7°
Drops below altitude 10° 17:48:04 10° 67° (ENE) 2,881 4.4 -9.6°
Enters shadow 17:48:14 - 68° (ENE) 2,928 4.4 -9.6°
